Hagerstown, MD

12:43 AM EST on December 10, 2019 (GMT -0500)
Hagerstown Regional-Henson

Weather History for KHGR - November, 2019

Change the Weather History Date:

Friday, November 22, 2019

  Actual Average Record
Temperature  
Mean Temperature 47 °F 42 °F  
Max Temperature 60 °F 50 °F 70 °F (2007)
Min Temperature 33 °F 35 °F 19 °F (2000)
Degree Days  
Heating Degree Days 18 22  
Month to date heating degree days 512 408  
Since 1 July heating degree days 731 810  
Cooling Degree Days 0 0  
Month to date cooling degree days 0 0  
Year to date cooling degree days 1473 969  
Moisture  
Dew Point 32 °F    
Average Humidity 55    
Maximum Humidity 64    
Minimum Humidity 45    
Precipitation  
Precipitation T in 0.11 in 0.64 in (2011)
Month to date precipitation 0.34 2.24  
Year to date precipitation 34.44 35.42  
Sea Level Pressure  
Sea Level Pressure 29.96 in    
Wind  
Wind Speed 11 mph (West)    
Max Wind Speed 30 mph    
Max Gust Speed 35 mph    
Visibility 10 miles    
Events      
T = Trace of Precipitation, MM = Missing Value Source: NWS Daily Summary

Daily Weather History Graph

Daily Weather History Graph

Search for Another Location

Airport or City:

Astronomy

Nov. 22, 2019 Rise Set
Actual Time 7:02 AM EST 4:50 PM EST
Civil Twilight 6:33 AM EST 5:20 PM EST
Nautical Twilight 6:00 AM EST 5:52 PM EST
Astronomical Twilight 5:28 AM EST 6:25 PM EST
Moon 2:07 AM EST (11/22) 2:49 PM EST (11/22)
Length of Visible Light 10h 46m
Length of Day
9h 47m
Waning Crescent, 20% of the Moon is Illuminated
Nov 22
Waning Crescent
Nov 26
New
Dec 4
First Quarter
Dec 12
Full
Dec 18
Last Quarter

Hourly Weather History & Observations

Time (EST) Temp. Windchill Dew Point Humidity Pressure Visibility Wind Dir Wind Speed Gust Speed Precip Events Conditions
12:53 AM 51.1 °F - 34.0 °F 52% 29.95 in 10.0 mi South 9.2 mph - N/A   Overcast
1:53 AM 51.1 °F - 34.0 °F 52% 29.95 in 10.0 mi South 8.1 mph - N/A   Overcast
2:53 AM 51.1 °F - 35.1 °F 54% 29.91 in 10.0 mi SSE 8.1 mph - N/A   Overcast
3:53 AM 51.1 °F - 35.1 °F 54% 29.90 in 10.0 mi South 8.1 mph - N/A   Overcast
4:53 AM 51.1 °F - 36.0 °F 56% 29.89 in 10.0 mi South 4.6 mph - N/A   Overcast
5:53 AM 51.1 °F - 36.0 °F 56% 29.87 in 10.0 mi South 10.4 mph - N/A   Overcast
6:53 AM 52.0 °F - 36.0 °F 54% 29.85 in 10.0 mi South 8.1 mph - N/A   Overcast
7:53 AM 54.0 °F - 37.0 °F 53% 29.86 in 10.0 mi SW 10.4 mph - N/A   Overcast
8:53 AM 55.0 °F - 39.0 °F 55% 29.87 in 10.0 mi WSW 8.1 mph - N/A   Overcast
9:53 AM 57.9 °F - 42.1 °F 56% 29.86 in 10.0 mi SW 6.9 mph - N/A   Overcast
10:53 AM 59.0 °F - 43.0 °F 55% 29.85 in 10.0 mi West 13.8 mph - N/A   Overcast
11:53 AM 55.0 °F - 41.0 °F 59% 29.88 in 10.0 mi WNW 18.4 mph - N/A   Overcast
1:53 PM 51.1 °F - 35.1 °F 54% 29.89 in 10.0 mi NW 15.0 mph - N/A   Overcast
2:53 PM 50.0 °F - 32.0 °F 50% 29.91 in 10.0 mi WNW 17.3 mph 21.9 mph N/A   Clear
3:53 PM 48.9 °F - 28.9 °F 46% 29.94 in 10.0 mi WNW 24.2 mph - N/A   Clear
4:53 PM 46.9 °F - 27.0 °F 46% 29.97 in 10.0 mi NW 16.1 mph 25.3 mph N/A   Clear
5:53 PM 45.0 °F 36.6 °F 26.1 °F 48% 30.02 in 10.0 mi NW 21.9 mph 28.8 mph N/A   Clear
6:53 PM 41.0 °F 35.8 °F 25.0 °F 53% 30.06 in 10.0 mi NNE 8.1 mph - N/A   Clear
7:53 PM 39.9 °F 34.5 °F 24.1 °F 53% 30.09 in 10.0 mi NNW 8.1 mph - N/A   Clear
8:53 PM 37.9 °F 32.1 °F 25.0 °F 60% 30.10 in 10.0 mi NW 8.1 mph - N/A   Clear
9:53 PM 36.0 °F - 24.1 °F 62% 30.11 in 10.0 mi Calm Calm - N/A   Clear
10:53 PM 37.0 °F 34.5 °F 24.1 °F 59% 30.12 in 10.0 mi NNW 3.5 mph - N/A   Clear
11:53 PM 35.1 °F 31.0 °F 23.0 °F 61% 30.12 in 10.0 mi NNW 4.6 mph - N/A   Clear